Location: San Antonio
(29.4240°N, 98.4930°W)
Time: 02:10:44
(UTC-05:00)

ISS - Pass Details

Date: 23 June 2024
Orbit: 410 x 424 km, 51.6° (Epoch: 13 July)

Event Time Altitude Azimuth Distance (km) Brightness Sun altitude
Exits shadow 04:29:52 40° 357° (N) 616 -2.7 -22.7°
Drops below altitude 10° 04:32:24 10° 32° (NNE) 1,485 0.1 -22.3°
Sets 04:34:33 0° 38° (NE) 2,354 1.6 -22.0°
